Location: Nitra
(0.0000°N, 18.0833°E)
Time: 05:27:34
(UTC+01:00)

CZ-4 R/B - Pass Details

Date: 24 January 2021
Orbit: 531 x 599 km, 97.7° (Epoch: 04 March)

Event Time Altitude Azimuth Distance (km) Brightness Sun altitude
Rises 18:38:55 0° 162° (SSE) 2,839 5.0 -9.2°
Reaches altitude 10° 18:41:07 10° 159° (SSE) 1,930 4.1 -9.7°
Maximum altitude 18:45:15 60° 79° (E) 678 1.5 -10.7°
Drops below altitude 10° 18:49:19 10° 359° (N) 1,895 3.9 -11.7°
Sets 18:51:28 0° 355° (N) 2,781 4.8 -12.2°
